[[{"header":{"parameterUnit":"m.s-1","parameterCategory":1,"la1":30.2991,"la2":30.254,"lo1":-89.0895,"lo2":-89.0444,"dy":0.0017,"dx":0.0017,"nx":28,"ny":28,"refTime":"2023-08-13T03:00:00:Z","depth":0,"parameterNumber":2,"parameterNumberName":"U-component_of_WINDS"},"data":[0,0,0,0,0,0,0,0,0,0,0,0,0,0,0,0,0,0,0,0,0,0,0,0,0,0,0,0,0,0,0,0,0,0,0,0,0,0,0,0,0,0,0,0,0,0,0,0,0,0,0,0,0,0,0,0,0,0,1.1968,1.1969,0,1.2076,1.2077,1.2078,1.206,1.2058,1.2056,1.2054,1.2171,1.2176,1.218,0,0,0,0,0,0,0,0,0,0,0,0,0,1.1752,1.1756,1.1968,1.1969,1.197,1.2075,1.2077,1.2078,1.206,1.2058,1.2055,1.2053,1.2169,1.2175,1.2181,0,0,0,0,0,0,0,0,0,0,0,0,0,1.1851,1.1757,1.1967,1.1974,1.1975,1.2075,1.2077,1.2079,1.206,1.2058,1.2055,1.2052,1.2167,1.2174,1.2182,1.2284,0,0,1.2204,1.2207,0,0,0,0,0,0,0,0,1.1846,1.1859,1.1971,1.1973,1.1975,1.2051,1.2043,1.2148,1.2061,1.2028,1.2054,1.2051,1.2134,1.2144,1.217,1.2289,1.2294,1.2205,1.2209,1.2212,1.2214,0,0,0,0,0,0,0,1.1839,1.1854,1.201,1.1973,1.1976,1.1973,1.1984,1.2063,1.2096,1.2031,1.203,1.2043,1.2134,1.2163,1.2173,1.2296,1.2204,1.2211,1.2216,1.2218,1.2506,1.2509,0,0,0,0,0,0,1.1829,1.1849,1.2007,1.2014,1.1902,1.1979,1.1992,1.203,1.2095,1.2102,1.2045,1.2041,1.2152,1.2164,1.2177,1.2301,1.2212,1.2219,1.2223,1.2502,1.2506,1.251,0,0,0,0,0,0,1.1824,1.1843,1.2003,1.1931,1.1951,1.1986,1.2029,1.2033,1.2062,1.2105,1.2112,1.2068,1.215,1.2167,1.2257,1.2305,1.2222,1.2229,1.2499,1.2504,1.2508,1.2551,0,0,0,0,0,0,1.1818,1.1842,1.1879,1.1932,1.1955,1.2079,1.2032,1.2038,1.2074,1.2071,1.2129,1.2136,1.2149,1.2246,1.2264,1.2314,1.2235,1.2494,1.2501,1.2506,1.2545,1.2556,1.2566,0,0,0,0,0,1.1811,1.1888,1.1881,1.1901,1.2002,1.2082,1.2096,1.2108,1.2078,1.2117,1.2145,1.2134,1.2297,1.2256,1.2276,1.2328,1.2491,1.2499,1.2506,1.254,1.2554,1.2566,0,0,0,0,0,0,1.1843,1.1895,1.1888,1.1985,1.2029,1.2079,1.2128,1.2122,1.2177,1.2171,1.2186,1.22,1.2292,1.2319,1.2272,1.2431,1.239,1.2402,1.241,1.2423,1.2433,1.2425,1.2241,0,0,0,0,0,1.1861,1.1919,1.1963,1.2044,1.2066,1.2094,1.2129,1.2134,1.2181,1.2201,1.2235,1.2283,1.2345,1.2385,1.2445,1.2549,1.2562,1.2595,1.2605,1.2614,1.2624,1.2682,1.2697,1.2534,1.2534,1.2533,0,0,1.1899,1.1935,1.1971,1.2051,1.2086,1.2148,1.2109,1.2177,1.2223,1.2211,1.2298,1.2325,1.238,1.2478,1.2523,1.2504,1.2672,1.2623,1.2629,1.2635,1.2691,1.2706,1.272,1.2539,1.2538,1.2537,0,0,1.2001,1.2033,1.2104,1.214,1.2192,1.221,1.2227,1.2278,1.2295,1.2382,1.2375,1.2432,1.2538,1.2577,1.2611,1.2728,1.272,1.2747,1.2802,1.2858,1.2871,1.2882,1.2924,1.2939,1.2757,1.2757,1.2757,0,1.2042,1.2133,1.2143,1.221,1.2246,1.2236,1.231,1.2344,1.2415,1.2441,1.2418,1.2551,1.2587,1.2694,1.2722,1.275,1.2771,1.274,1.2868,1.2879,1.289,1.2931,1.2946,1.276,1.2759,1.2759,1.2759,0,1.2182,1.2246,1.2297,1.2363,1.2405,1.2475,1.2497,1.2539,1.2541,1.2562,1.2651,1.2694,1.2762,1.2788,1.2792,1.2896,1.2883,1.2864,1.2823,1.2908,1.2947,1.2962,1.2764,1.2763,1.2762,1.2761,0,0,1.2307,1.2376,1.2395,1.2425,1.2483,1.2533,1.2604,1.2668,1.2704,1.2753,1.2813,1.2904,1.2886,1.2925,1.2933,1.2982,1.3072,1.2957,1.2959,1.2977,1.3191,1.3205,1.3223,1.3067,1.307,1.3073,1.3187,0,1.2414,1.2536,1.2547,1.2658,1.2717,1.2709,1.2771,1.2814,1.2835,1.289,1.2915,1.2979,1.2951,1.2974,1.3022,1.3051,1.3116,1.3043,1.3125,1.3128,1.3112,1.3243,1.3258,1.3363,1.3202,1.3204,1.3206,0,1.2555,1.2606,1.2722,1.2771,1.2797,1.2852,1.2912,1.2964,1.3014,1.3026,1.3069,1.307,1.3145,1.3101,1.3205,1.3155,1.319,1.3209,1.3214,1.3222,1.3172,1.3255,1.3397,1.3413,1.323,1.3228,1.3226,0,1.2635,1.2733,1.2815,1.2841,1.29,1.2939,1.2966,1.3013,1.3051,1.3104,1.313,1.3192,1.3226,1.3275,1.3294,1.326,1.3398,1.3355,1.3411,1.3411,1.3441,1.3439,1.359,1.3463,1.3462,1.3462,1.3462,0,1.2753,1.2825,1.2852,1.2902,1.2983,1.2995,1.3075,1.3101,1.3142,1.3199,1.3196,1.325,1.3271,1.3329,1.3345,1.3429,1.3445,1.3458,1.3461,1.3458,1.3456,1.3481,1.3474,1.3466,1.3465,1.3464,1.3464,0,1.2856,1.2877,1.2966,1.3014,1.3028,1.3086,1.3128,1.3178,1.3198,1.327,1.3288,1.3321,1.3389,1.3413,1.3496,1.3506,1.3604,1.3601,1.3587,1.3588,1.3642,1.3637,1.3815,1.384,1.3696,1.3697,1.3698,0,1.293,1.2985,1.3039,1.3076,1.3104,1.3163,1.3202,1.3217,1.3258,1.3318,1.3361,1.3428,1.3482,1.3592,1.3624,1.3688,1.3687,1.3745,1.3696,1.3692,1.3688,1.3685,1.369,1.3754,1.3756,1.3757,1.3758,0,1.306,1.3068,1.3122,1.3181,1.3227,1.3274,1.332,1.3351,1.3373,1.3419,1.3488,1.353,1.3613,1.3681,1.3745,1.3775,1.3771,1.3773,1.3789,1.3787,1.3776,1.3783,1.3612,1.3769,1.3768,1.3767,1.3766,1.3766,1.3152,1.32,1.3245,1.3306,1.3342,1.3385,1.3434,1.346,1.3517,1.3585,1.3591,1.3665,1.3714,1.38,1.3833,1.3893,1.3877,1.39,1.3907,1.3912,1.3916,1.3766,1.3905,1.3904,1.3904,1.3904,1.3904,0,1.3281,1.331,1.3366,1.343,1.3478,1.3468,1.3518,1.356,1.3625,1.367,1.3723,1.3802,1.3867,1.3904,1.397,1.401,1.401,1.4027,1.4024,1.4031,1.3927,1.3906,1.4026,1.4026,1.4026,1.4026,1.4026,1.4026,1.3355,1.3436,1.3449,1.3548,1.3577,1.3648,1.3677,1.3718,1.3754,1.3841,1.3894,1.3918,1.396,1.4029,1.4089,1.4098,1.4123,1.4141,1.4149,1.4051,1.4039,1.4027,1.4007,1.4146,1.4146,1.4249,1.425,1.4251]},{"header":{"parameterUnit":"m.s-1","parameterCategory":1,"la1":30.2991,"la2":30.254,"lo1":-89.0895,"lo2":-89.0444,"dy":0.0017,"dx":0.0017,"nx":28,"ny":28,"refTime":"2023-08-13T03:00:00:Z","depth":0,"parameterNumber":3,"parameterNumberName":"V-component_of_WINDS"},"data":[0,0,0,0,0,0,0,0,0,0,0,0,0,0,0,0,0,0,0,0,0,0,0,0,0,0,0,0,0,0,0,0,0,0,0,0,0,0,0,0,0,0,0,0,0,0,0,0,0,0,0,0,0,0,0,0,0,0,2.1502,2.1502,0,2.1554,2.1554,2.1555,2.1587,2.1587,2.1588,2.1588,2.1637,2.1638,2.164,0,0,0,0,0,0,0,0,0,0,0,0,0,2.1424,2.1426,2.1502,2.1502,2.1503,2.1554,2.1554,2.1555,2.1587,2.1587,2.1588,2.1588,2.1637,2.1638,2.164,0,0,0,0,0,0,0,0,0,0,0,0,0,2.1465,2.1426,2.1502,2.1525,2.1528,2.1553,2.1554,2.1555,2.1587,2.1587,2.1588,2.1588,2.1636,2.1638,2.164,2.1645,0,0,2.1645,2.1646,0,0,0,0,0,0,0,0,2.1463,2.1468,2.1521,2.1524,2.1527,2.1564,2.1545,2.1585,2.1587,2.1565,2.1588,2.1588,2.1613,2.1616,2.1625,2.1647,2.1649,2.1645,2.1646,2.1647,2.1647,0,0,0,0,0,0,0,2.146,2.1466,2.1522,2.1522,2.1525,2.1531,2.1537,2.1553,2.1586,2.1567,2.1569,2.1575,2.1614,2.1624,2.1627,2.165,2.1645,2.1647,2.1648,2.1648,2.1674,2.1673,0,0,0,0,0,0,2.1454,2.1463,2.1521,2.1524,2.1495,2.1532,2.1539,2.1552,2.1586,2.1592,2.1575,2.1576,2.162,2.1625,2.1629,2.1634,2.1647,2.1649,2.165,2.1674,2.1673,2.1673,0,0,0,0,0,0,2.1452,2.1459,2.1519,2.1494,2.1502,2.1534,2.1547,2.1553,2.1562,2.1592,2.1598,2.1579,2.1621,2.1626,2.164,2.1636,2.1649,2.1651,2.1674,2.1674,2.1673,2.1646,0,0,0,0,0,0,2.145,2.1458,2.1462,2.1494,2.1504,2.1531,2.1547,2.1554,2.1566,2.1568,2.1598,2.1603,2.1621,2.1637,2.1641,2.1639,2.1652,2.1675,2.1674,2.1673,2.1647,2.1645,2.1642,0,0,0,0,0,2.1447,2.1453,2.1462,2.1469,2.1509,2.1531,2.1536,2.1559,2.1565,2.1568,2.1587,2.1602,2.1636,2.1638,2.1643,2.1641,2.1675,2.1674,2.1674,2.1649,2.1645,2.1642,0,0,0,0,0,0,2.142,2.1458,2.1469,2.1485,2.1504,2.1536,2.1541,2.1555,2.1572,2.1574,2.16,2.1606,2.1616,2.163,2.1632,2.1645,2.1657,2.1657,2.1636,2.1633,2.1631,2.1627,2.1654,0,0,0,0,0,2.1415,2.1431,2.1463,2.1474,2.1483,2.151,2.152,2.1536,2.1556,2.1564,2.1584,2.1602,2.1617,2.1626,2.1641,2.1649,2.1654,2.165,2.1647,2.1645,2.1645,2.1646,2.1644,2.167,2.167,2.167,0,0,2.1407,2.143,2.1438,2.1469,2.1486,2.1499,2.1517,2.1531,2.154,2.1566,2.158,2.1595,2.1616,2.1626,2.1632,2.1638,2.1638,2.1644,2.1642,2.1643,2.1645,2.1642,2.164,2.167,2.167,2.167,0,0,2.1398,2.1418,2.1428,2.1444,2.1469,2.1486,2.1488,2.1517,2.1528,2.1542,2.156,2.157,2.1596,2.1609,2.162,2.1611,2.1624,2.1615,2.1601,2.1602,2.16,2.1598,2.1592,2.159,2.1614,2.1614,2.1614,0,2.1385,2.1407,2.1431,2.1443,2.1455,2.1478,2.1487,2.15,2.1529,2.1535,2.1542,2.1571,2.1588,2.1599,2.1597,2.1605,2.1606,2.1612,2.1599,2.1597,2.1596,2.159,2.1588,2.1613,2.1613,2.1613,2.1613,0,2.1387,2.1402,2.1407,2.1433,2.1445,2.1455,2.1478,2.1487,2.15,2.1515,2.1527,2.1547,2.1565,2.1568,2.1582,2.1581,2.1583,2.1594,2.1606,2.1592,2.1587,2.1585,2.1611,2.1611,2.1612,2.1612,0,0,2.1366,2.1402,2.1403,2.1414,2.1441,2.1452,2.1461,2.1478,2.1484,2.1501,2.1508,2.1526,2.1535,2.1547,2.1561,2.1562,2.155,2.1572,2.1573,2.1565,2.1545,2.1536,2.1534,2.1558,2.1558,2.1558,2.1543,0,2.136,2.138,2.1399,2.1411,2.1422,2.1442,2.145,2.1465,2.1479,2.1489,2.1503,2.1515,2.1528,2.1534,2.1536,2.1551,2.1546,2.1552,2.1562,2.1562,2.1555,2.1532,2.1523,2.1508,2.1541,2.1541,2.1541,0,2.1357,2.1372,2.1385,2.1406,2.1412,2.1419,2.1434,2.1444,2.1461,2.147,2.1481,2.1495,2.1503,2.1513,2.1522,2.1526,2.153,2.1538,2.1538,2.1539,2.155,2.153,2.1504,2.1501,2.1539,2.1539,2.1539,0,2.1337,2.1361,2.137,2.1379,2.1405,2.1408,2.1419,2.1436,2.1444,2.1457,2.1461,2.1475,2.1481,2.149,2.1506,2.1513,2.1512,2.1525,2.1517,2.1517,2.1516,2.1516,2.1488,2.1522,2.1522,2.1522,2.1522,0,2.1328,2.1334,2.1361,2.1367,2.1373,2.1393,2.1398,2.1411,2.1424,2.1431,2.1449,2.1454,2.1476,2.1483,2.1495,2.1498,2.1502,2.1508,2.1511,2.1505,2.1504,2.1508,2.1509,2.1521,2.1521,2.1521,2.1521,0,2.1307,2.1326,2.1337,2.136,2.1365,2.1369,2.1387,2.1392,2.1405,2.1412,2.1415,2.1435,2.1443,2.146,2.1474,2.1482,2.1481,2.1488,2.1476,2.1477,2.1468,2.1468,2.1441,2.1437,2.1474,2.1474,2.1474,0,2.13,2.1305,2.1327,2.1333,2.1343,2.1352,2.1359,2.1378,2.1385,2.1401,2.1403,2.1412,2.1421,2.1433,2.1448,2.1456,2.1462,2.1452,2.1464,2.1457,2.1459,2.1458,2.1457,2.1449,2.1449,2.1449,2.1448,0,2.1285,2.1292,2.1303,2.1315,2.1323,2.1334,2.1345,2.1348,2.1369,2.1375,2.1383,2.139,2.1402,2.141,2.142,2.1429,2.1441,2.1444,2.1442,2.1437,2.1428,2.143,2.1467,2.1445,2.1445,2.1445,2.1446,2.1446,2.1269,2.1273,2.1288,2.1298,2.1308,2.1317,2.1321,2.1333,2.1341,2.1352,2.1362,2.1369,2.138,2.1396,2.1403,2.1407,2.1413,2.1411,2.141,2.1409,2.1406,2.1428,2.1409,2.1409,2.1409,2.1409,2.1409,0,2.1253,2.1262,2.1271,2.1285,2.1291,2.1302,2.1313,2.1318,2.1323,2.1334,2.1341,2.1348,2.1355,2.1368,2.1375,2.1375,2.138,2.1376,2.1376,2.1377,2.1401,2.1401,2.1372,2.1372,2.1372,2.1372,2.1372,2.1372,2.1245,2.125,2.1259,2.1267,2.1277,2.1283,2.1288,2.1295,2.1303,2.131,2.1316,2.1325,2.1335,2.1342,2.1347,2.1351,2.1351,2.1345,2.135,2.1372,2.1376,2.1379,2.1379,2.1345,2.1345,2.1325,2.1325,2.1325]}]]